Rogers, AR

6:10 PM CST on February 27, 2017 (GMT -0600)
Rogers Municipal-Carter

Weather History for KROG - December, 2014

Change the Weather History Date:

Saturday, December 6, 2014

  Actual Average Record
Temperature  
Mean Temperature 42 °F -  
Max Temperature 46 °F 48 °F 66 °F (1998)
Min Temperature 39 °F 32 °F 14 °F (2013)
Degree Days  
Heating Degree Days 22    
Moisture  
Dew Point 42 °F    
Average Humidity 96    
Maximum Humidity 100    
Minimum Humidity 87    
Precipitation  
Precipitation 0.00 in - - ()
Sea Level Pressure  
Sea Level Pressure 30.41 in    
Wind  
Wind Speed 8 mph (NNE)    
Max Wind Speed 10 mph    
Max Gust Speed -    
Visibility 6 miles    
Events      
Averages and records for this station are not official NWS values.
T = Trace of Precipitation, MM = Missing Value Source: NWS Daily Summary

Daily Weather History Graph

Daily Weather History Graph

Search for Another Location

Airport or City:

Trip Planner

Search our weather history database for the weather conditions in past years. The results will help you decide how hot, cold, wet, or windy it might be!

Date:

Astronomy

Dec. 06, 2014 Rise Set
Actual Time 7:13 AM CST 5:01 PM CST
Civil Twilight 6:45 AM CST 5:29 PM CST
Nautical Twilight 6:13 AM CST 6:01 PM CST
Astronomical Twilight 5:42 AM CST 6:32 PM CST
Moon 5:36 PM CST (12/6) 7:06 AM CST (12/6)
Length of Visible Light 10h 44m
Length of Day
9h 47m
Full, 100% of the Moon is Illuminated
Dec 6
Full
Dec 14
Last Quarter
Dec 21
New
Dec 28
First Quarter
Jan 4
Full

Hourly Weather History & Observations

Time (CST) Temp. Windchill Dew Point Humidity Pressure Visibility Wind Dir Wind Speed Gust Speed Precip Events Conditions
12:57 AM 46.9 °F - 46.0 °F 97% 30.23 in 10.0 mi North 8.1 mph - N/A   Overcast
1:25 AM 46.4 °F 43.5 °F 46.4 °F 100% 30.24 in 9.0 mi NNW 5.8 mph - N/A   Mostly Cloudy
1:57 AM 46.9 °F - 46.0 °F 97% 30.26 in 10.0 mi North 8.1 mph - N/A   Overcast
2:26 AM 46.4 °F 42.4 °F 46.4 °F 100% 30.28 in 8.0 mi North 8.1 mph - N/A   Overcast
2:57 AM 46.9 °F - 46.0 °F 97% 30.29 in 7.0 mi North 6.9 mph - N/A   Overcast
3:49 AM 46.4 °F 42.4 °F 46.4 °F 100% 30.30 in 2.5 mi NNW 8.1 mph - N/A   Overcast
3:57 AM 46.0 °F 43.1 °F 45.0 °F 96% 30.30 in 2.0 mi North 5.8 mph - N/A   Overcast
4:05 AM 46.4 °F 42.9 °F 44.6 °F 93% 30.31 in 3.0 mi North 6.9 mph - N/A   Overcast
4:28 AM 46.4 °F 42.9 °F 44.6 °F 93% 30.32 in 2.5 mi NNW 6.9 mph - N/A   Overcast
4:43 AM 44.6 °F 40.2 °F 44.6 °F 100% 30.32 in 1.8 mi North 8.1 mph - N/A   Overcast
4:57 AM 44.1 °F 39.5 °F 44.1 °F 100% 30.33 in 1.5 mi North 8.1 mph - N/A   Overcast
5:12 AM 44.6 °F 41.4 °F 44.6 °F 100% 30.33 in 2.0 mi NNW 5.8 mph - N/A   Overcast
5:25 AM 44.6 °F 40.2 °F 44.6 °F 100% 30.34 in 3.0 mi NNW 8.1 mph - N/A   Overcast
5:57 AM 44.1 °F 40.1 °F 43.0 °F 96% 30.36 in 5.0 mi North 6.9 mph - N/A   Overcast
6:24 AM 42.8 °F 38.6 °F 42.8 °F 100% 30.37 in 2.5 mi Variable 6.9 mph - N/A   Overcast
6:27 AM 42.8 °F 38.6 °F 42.8 °F 100% 30.37 in 3.0 mi North 6.9 mph - N/A   Overcast
6:35 AM 42.8 °F 38.0 °F 42.8 °F 100% 30.37 in 2.5 mi North 8.1 mph - N/A   Overcast
6:38 AM 42.8 °F 38.6 °F 42.8 °F 100% 30.37 in 3.0 mi North 6.9 mph - N/A   Overcast
6:57 AM 43.0 °F 39.5 °F 42.1 °F 97% 30.38 in 3.0 mi North 5.8 mph - N/A   Overcast
7:11 AM 42.8 °F 38.6 °F 42.8 °F 100% 30.39 in 2.5 mi North 6.9 mph - N/A   Overcast
7:43 AM 42.8 °F 38.0 °F 42.8 °F 100% 30.41 in 3.0 mi NNE 8.1 mph - N/A   Overcast
7:57 AM 43.0 °F 38.2 °F 42.1 °F 97% 30.42 in 3.0 mi NNE 8.1 mph - N/A   Overcast
8:04 AM 42.8 °F 38.0 °F 42.8 °F 100% 30.41 in 2.5 mi NNE 8.1 mph - N/A   Overcast
8:20 AM 42.8 °F 37.5 °F 42.8 °F 100% 30.42 in 3.0 mi North 9.2 mph - N/A   Overcast
8:57 AM 42.1 °F 36.1 °F 42.1 °F 100% 30.45 in 5.0 mi NNE 10.4 mph - N/A   Overcast
9:16 AM 42.8 °F 38.6 °F 42.8 °F 100% 30.45 in 1.8 mi NNW 6.9 mph - N/A   Overcast
9:23 AM 42.8 °F 38.6 °F 42.8 °F 100% 30.46 in 1.0 mi North 6.9 mph - N/A   Overcast
9:28 AM 42.8 °F 39.3 °F 42.8 °F 100% 30.46 in 1.2 mi North 5.8 mph - N/A   Overcast
9:34 AM 42.8 °F 38.0 °F 42.8 °F 100% 30.46 in 2.5 mi North 8.1 mph - N/A   Overcast
9:39 AM 42.8 °F 38.6 °F 41.0 °F 93% 30.47 in 3.0 mi North 6.9 mph - N/A   Overcast
9:57 AM 42.1 °F 36.6 °F 41.0 °F 96% 30.48 in 5.0 mi NNE 9.2 mph - N/A   Overcast
10:57 AM 42.1 °F 37.7 °F 41.0 °F 96% 30.49 in 8.0 mi North 6.9 mph - N/A   Overcast
11:57 AM 42.1 °F 39.2 °F 41.0 °F 96% 30.48 in 9.0 mi Variable 4.6 mph - N/A   Overcast
12:57 PM 43.0 °F - 42.1 °F 97% 30.47 in 10.0 mi North - - N/A   Overcast
1:21 PM 42.8 °F 37.0 °F 42.8 °F 100% 30.46 in 10.0 mi NNE 10.4 mph - N/A   Overcast
1:57 PM 42.8 °F 37.0 °F 39.2 °F 87% 30.46 in 10.0 mi NE 10.4 mph - N/A   Overcast
1:59 PM 43.0 °F 37.7 °F 39.9 °F 89% 30.48 in 10.0 mi NE 9.2 mph - N/A   Overcast
2:57 PM 43.0 °F 37.2 °F 39.9 °F 89% 30.47 in 10.0 mi NNE 10.4 mph - N/A   Overcast
3:57 PM 43.0 °F 37.2 °F 39.9 °F 89% 30.49 in 10.0 mi ENE 10.4 mph - N/A   Overcast
4:57 PM 42.1 °F 38.4 °F 39.9 °F 92% 30.51 in 10.0 mi NE 5.8 mph - N/A   Overcast
5:57 PM 42.1 °F 37.1 °F 39.0 °F 89% 30.51 in 10.0 mi ENE 8.1 mph - N/A   Overcast
6:57 PM 41.0 °F 35.2 °F 39.0 °F 93% 30.50 in 10.0 mi ENE 9.2 mph - N/A   Overcast
7:57 PM 41.0 °F 35.8 °F 37.9 °F 89% 30.51 in 10.0 mi ENE 8.1 mph - N/A   Overcast
8:57 PM 41.0 °F 35.8 °F 39.0 °F 93% 30.52 in 7.0 mi ENE 8.1 mph - N/A   Overcast
9:57 PM 39.9 °F 33.4 °F 37.9 °F 93% 30.51 in 10.0 mi East 10.4 mph - N/A   Overcast
10:57 PM 39.9 °F 33.4 °F 37.9 °F 93% 30.50 in 8.0 mi ENE 10.4 mph - N/A   Overcast
11:57 PM 39.9 °F 34.5 °F 37.9 °F 93% 30.50 in 9.0 mi East 8.1 mph - N/A   Overcast